Regional Weather Roundup
Issued by NWS

Home | Current Version | Previous Version | Text Only | Print | Product List | Glossary Off
Versions: 1 2 3 4 5 6 7 8 9 10 11 12 13 14 15 16 17 18 19 20 21 22 23 24 25 26 27 28 29 30 31 32 33 34 35 36 37 38 39 40 41 42 43 44 45 46 47 48 49 50

853
ASUS45 KTFX 120610
RWRMT
MONTANA REGIONAL WEATHER ROUNDUP
NATIONAL WEATHER SERVICE GREAT FALLS MT
1100 PM MST THU FEB 11 2016

NOTE: "FAIR" INDICATES FEW OR NO CLOUDS BELOW 12000 FEET WITH NO
SIGNIFICANT WEATHER AND/OR OBSTRUCTIONS TO VISIBILITY.

MTZ001>007-043-120700-
WEST OF THE DIVIDE

CITY           SKY/WX    TMP DP  RH WIND       PRES   REMARKS
KALISPELL      CLOUDY    35  31  85 CALM      30.24S
MISSOULA       CLOUDY    41  33  73 CALM      30.25F
BUTTE          CLOUDY    35  30  82 CALM      30.26S
MULLAN PASS    LGT RAIN  34  32  92 VRB6      30.22S WCI  29
ANACONDA         N/A     39  32  75 CALM      30.25S
DEER LODGE       N/A     37  30  75 CALM      30.26S
HAMILTON         N/A     43  37  81 CALM      30.26S
PLAINS           N/A     40  34  79 CALM      30.23S
$$

MTZ008-052>055-120700-
SOUTHWEST MONTANA

CITY           SKY/WX    TMP DP  RH WIND       PRES   REMARKS
BOZEMAN        CLOUDY    38  30  73 SW5       30.26R
DILLON         CLOUDY    38  32  79 SW13      30.25F WCI  30
ENNIS          CLOUDY    43  30  61 S13       30.32S
TWIN BRIDGES     N/A     38  27  65 E2        30.21F
$$

MTZ009-010-012-014-046-048-049-054-120700-
EAST SLOPES AND CENTRAL MONTANA

CITY           SKY/WX    TMP DP  RH WIND       PRES   REMARKS
CUT BANK       MOCLDY    33  28  81 E5        30.25S
GREAT FALLS    CLOUDY    34  29  82 E6        30.25F WCI  29
MALMSTROM AFB  CLOUDY    34  31  88 E1        30.26F
HELENA         CLOUDY    39  29  67 CALM      30.24R
CHOTEAU          N/A     36  30  80 CALM      30.26F
CONRAD           N/A     26  25  96 N2        30.24F
$$

MTZ011-013-016-021-045-047-050-051-120700-
NORTH CENTRAL MONTANA

CITY           SKY/WX    TMP DP  RH WIND       PRES   REMARKS
HAVRE          PTCLDY    29  28  96 CALM      30.29R
LEWISTOWN      CLOUDY    36  29  75 SW6       30.26R WCI  31
N BAR RANCH      N/A     37  28  70 NW5       30.27S
CHINOOK          N/A     30  28  93 CALM      30.30R
$$

MTZ017>020-022>027-061-062-120700-
NORTHEAST MONTANA

CITY           SKY/WX    TMP DP  RH WIND       PRES   REMARKS
GLASGOW        CLOUDY    29  23  78 N6        30.31R WCI  23
JORDAN           N/A     31  29  92 NW3       30.28R
SIDNEY         CLOUDY    23  18  80 NE7       30.33R WCI  15
WOLF POINT     CLOUDY    26  18  71 E9        30.35R WCI  17
PLENTYWOOD       N/A     16  10  79 N10       30.34R WCI   3
POPLAR           N/A     21  18  86 E7        30.35R WCI  13
SCOBEY           N/A     18   9  68 N8        30.28R WCI   8
$$

MTZ028>42-056>058-120700-
SOUTHCENTRAL AND SOUTHEAST MONTANA

CITY           SKY/WX    TMP DP  RH WIND       PRES   REMARKS
BAKER          CLOUDY    27  21  78 NW8       30.26R WCI  19
BILLINGS       CLOUDY    44  27  51 CALM      30.26R
LIVINGSTON     CLOUDY    47  29  49 W12G18    30.24R
MILES CITY     CLOUDY    31  26  82 CALM      30.28R
EKALAKA          N/A     26  22  85 NW5       30.19R
FORSYTH          N/A     32  30  93 CALM      30.29R
LAUREL           N/A     40  18  41 MISG      30.22R
ROUNDUP          N/A     36  28  73 CALM      30.14F
$$

REGIONAL REPORTS...DAKOTAS

CITY           SKY/WX    TMP DP  RH WIND       PRES   REMARKS
WILLISTON      CLOUDY    20  15  81 N7        30.34R WCI  11
MINOT          CLOUDY    17   7  64 NW10      30.32R WCI   5
DICKINSON      CLOUDY    21  17  84 N7        30.24R WCI  12
BEACH          CLOUDY    21  21 100 N8        30.30R WCI  12
CROSBY         CLOUDY    14  10  85 N8        30.38R WCI   3
TIOGA          FLURRIES  16  16 100 N9        30.35R WCI   4
WATFORD CITY   FLURRIES  19  16  86 N6        30.32S WCI  11
BISMARCK       CLOUDY    20  12  71 N6        30.31R WCI  12
GRAND FORKS    CLEAR      8   0  69 N14       30.32R WCI  -8
FARGO          CLOUDY    13   6  74 N13       30.30R WCI  -2
BUFFALO SD       N/A     29  24  82 N8        30.17R WCI  21
RAPID CITY     CLOUDY    31  28  89 CALM      30.24S
$$

REGIONAL REPORTS...WYOMING/IDAHO/WASHINGTON

CITY           SKY/WX    TMP DP  RH WIND       PRES   REMARKS
GILLETTE       CLEAR     33  26  75 W8        30.23R WCI  26
SHERIDAN       CLOUDY    37  25  61 W5        30.25R
BUFFALO WY     CLOUDY    37  23  56 N6        30.25R
CODY           CLOUDY    39  19  45 SE5       30.24S
YELLOWSTONE LA   N/A     32  22  66 CALM      30.37S
IDAHO FALLS    CLOUDY    28  24  85 N5        30.37F
SALMON         CLOUDY    28  27  93 NW3       30.35S
BOISE          PTCLDY    37  30  75 SE3       30.33S
SPOKANE        LGT RAIN  40  37  89 NE3       30.23R
$$

REGIONAL REPORTS...ALBERTA

CITY           SKY/WX    TMP DP  RH WIND       PRES   REMARKS
EDMONTON       CLOUDY    16  10  79 E9        30.37S WCI   4
CALGARY        MOCLDY    36  30  80 SE5       30.25S
LETHBRIDGE     MOCLDY    30  30 100 NW3       30.27S
MEDICINE HAT   CLOUDY    34  32  93 N7        30.30R WCI  28
WATERTON GATE    N/A     36  27  69 NE3         N/A
CARDSTON         N/A     32  28  86 SE2         N/A
MILK RIVER       N/A     27  27 100 NW2         N/A
ONEFOUR          N/A     32  30  93 N14         N/A  WCI  22
$$

REGIONAL REPORTS...SASKATCHEWAN

CITY           SKY/WX    TMP DP  RH WIND       PRES   REMARKS
SWIFT CURRENT  CLOUDY    12  10  92 E10       30.33R WCI  -1
REGINA         PTCLDY     7   0  72 N10       30.43R WCI  -8
SASKATOON      CLEAR      3   0  85 N5        30.51R
CYPRESS HILLS    N/A     27  25  93 N3          N/A
VAL MARIE        N/A     23  21  93 NE10        N/A  WCI  12
ROCKGLEN         N/A     14  12  92 N7          N/A  WCI   4
ASSINIBOIA       N/A     16  10  79 E12         N/A  WCI   3
$$




USA.gov is the U.S. government's official web portal to all federal, state and local government web resources and services.